Location: Cerroniocc
(13.7547°S, 72.0222°W)
Time: 19:22:18
(UTC+00:00)

SL-4 R/B - Pass Details

Date: 05 July 2020
Orbit: 428 x 666 km, 51.6° (Epoch: 11 August)

Event Time Altitude Azimuth Distance (km) Brightness Sun altitude
Rises 23:40:04 0° 330° (NNW) 2,966 6.6 -15.9°
Reaches altitude 10° 23:42:24 10° 333° (NNW) 2,070 5.6 -16.5°
Maximum altitude 23:47:10 65° 54° (NE) 732 2.4 -17.6°
Enters shadow 23:49:09 34° 124° (SE) 1,089 3.0 -18.0°
